Home   Weather   Manassas   Past weeks

Flag for USA Past Weather in Manassas, Virginia, USA — April 2017

Now
66 °F

Fog.


Feels Like: 66 °F
Forecast: 68 / 83 °F
Wind: 5 mph from Northeast

Location: Manassas Municipal

Current Time: Jun 23, 2018 at 2:03:35 am

Latest Report: Jun 23, 2018 at 1:09 am


Visibility: 2 mi

Pressure: 29.86 "Hg

Humidity: 94%

Dew Point: 64 °F

Location of ManassasLocation

April 2017 Weather in Manassas — Graph

°F

High & Low Weather Summary for April 2017

 TemperatureHumidityPressure
High89 °F (Apr 29, 2:56 pm)100% (Apr 1, 12:21 am)30.47 "Hg (Apr 1, 12:21 am)
Low30 °F (Apr 9, 6:56 am)19% (Apr 9, 3:56 pm)29.28 "Hg (Apr 6, 12:56 pm)
Average61 °F69%30.03 "Hg
* Reported Apr 1 12:21 am — Apr 30 11:56 pm, Manassas. Weather by CustomWeather, © 2018

Note: Actual official high and low records may vary slightly from our data, if they occured in-between our weather recording intervals... More about our weather records

Advertising

Manassas Weather History for April 1, 2017

Scroll right to see more
 ConditionsComfort  
Time TempWeatherWind HumidityBarometerVisibility
12:21 am
Sat, Apr 1
45 °FPassing clouds.3 mph100%29.68 "Hg9 mi
12:56 am44 °FPassing clouds.No wind93%29.72 "Hg9 mi
1:10 am43 °FFog.No wind100%29.68 "Hg4 mi
1:56 am45 °FLight rain. Fog.No wind97%29.72 "Hg5 mi
2:56 am45 °FLow clouds.5 mph93%29.73 "Hg8 mi
3:25 am45 °FFog.3 mph93%29.71 "Hg6 mi
3:56 am45 °FFog.7 mph97%29.76 "Hg6 mi
4:33 am45 °FLow clouds.6 mph100%29.75 "Hg7 mi
4:56 am46 °FLight rain. Fog.3 mph93%29.79 "Hg6 mi
5:14 am46 °FMostly cloudy.6 mph93%29.76 "Hg7 mi
5:56 am47 °FOvercast.6 mph93%29.83 "Hg10 mi
6:56 am47 °FMostly cloudy.3 mph93%29.86 "Hg10 mi
7:20 am46 °FMore clouds than sun.No wind93%29.84 "Hg10 mi
7:56 am47 °FMore clouds than sun.3 mph97%29.89 "Hg9 mi
8:56 am51 °FMostly cloudy.20 mph77%29.90 "Hg10 mi
9:56 am55 °FSunny.10 mph67%29.92 "Hg10 mi
10:56 am54 °FOvercast.17 mph64%29.95 "Hg10 mi
11:56 am56 °FPassing clouds.20 mph62%29.97 "Hg10 mi
12:56 pm56 °FMostly cloudy.20 mph62%29.98 "Hg10 mi
1:56 pm58 °FOvercast.16 mph58%29.98 "Hg10 mi
2:56 pm58 °FOvercast.18 mph58%29.99 "Hg10 mi
3:56 pm58 °FOvercast.23 mph56%30.00 "Hg10 mi
4:56 pm58 °FSunny.14 mph54%30.01 "Hg10 mi
5:56 pm57 °FSunny.17 mph53%30.03 "Hg10 mi
6:56 pm54 °FOvercast.16 mph57%30.09 "Hg10 mi
7:56 pm51 °FOvercast.15 mph61%30.13 "Hg10 mi
8:56 pm50 °FOvercast.15 mph63%30.15 "Hg10 mi
9:56 pm49 °FOvercast.8 mph66%30.16 "Hg10 mi
10:56 pm49 °FOvercast.8 mph64%30.18 "Hg10 mi
11:56 pm48 °FOvercast.10 mph66%30.20 "Hg10 mi
Weather by CustomWeather, © 2018

See weather overview